Location: Chevoux
(46.3801°N, 4.9476°E)
Time: 21:56:50
(UTC+00:00)

COSMO-SKYMED 1 - Pass Details

Date: 28 January 2021
Orbit: 621 x 623 km, 97.9° (Epoch: 04 March)

Event Time Altitude Azimuth Distance (km) Brightness Sun altitude
Rises 17:07:52 0° 22° (NNE) 2,915 5.6 -5.4°
Reaches altitude 10° 17:10:17 10° 33° (NNE) 2,003 4.7 -5.8°
Maximum altitude 17:14:10 31° 96° (E) 1,097 3.4 -6.5°
Drops below altitude 10° 17:18:01 10° 159° (SSE) 1,987 5.1 -7.1°
Sets 17:20:23 0° 170° (S) 2,887 6.1 -7.5°
